When you browse on this site, cookies collect data to enhance your experience and personalize the content and advertising you see.
Visit our Privacy Policy to learn more. By continuing to use the site, you agree to this use of cookies and data.
  • In Portugal
  • List of Countries
  • For 7 days
  • Water Temperature
  • Weather Map
  • Weather Widgets
  • user-avatar
    Login

    Hourly Weather Shusha

    Today, 20 August, Tuesday

    Time Temperature Precipitation Wind Pressure Humidity
    00:00 +20°C° 0 mm 2 mps 663 mmHg 36%
    01:00 +21°C° 0 mm 1 mps 663 mmHg 36%
    02:00 +20°C° 0 mm 1 mps 663 mmHg 36%
    03:00 +20°C° 0 mm 1 mps 663 mmHg 35%
    04:00 +20°C° 0 mm 1 mps 663 mmHg 36%
    05:00 +20°C° 0 mm 1 mps 663 mmHg 36%
    06:00 +20°C° 0 mm 1 mps 664 mmHg 36%
    07:00 +23°C° 0 mm 1 mps 664 mmHg 30%
    08:00 +25°C° 0 mm 1 mps 665 mmHg 25%
    09:00 +28°C° 0 mm 2 mps 666 mmHg 19%
    10:00 +29°C° 0 mm 2 mps 666 mmHg 17%
    11:00 +30°C° 0 mm 3 mps 665 mmHg 15%
    12:00 +31°C° 0 mm 3 mps 665 mmHg 13%
    13:00 +31°C° 0 mm 3 mps 665 mmHg 14%
    14:00 +33°C° 0 mm 3 mps 665 mmHg 14%
    15:00 +33°C° 0 mm 4 mps 665 mmHg 14%
    16:00 +30°C° 0 mm 3 mps 664 mmHg 17%
    17:00 +29°C° 0 mm 3 mps 664 mmHg 20%
    18:00 +28°C° 0 mm 2 mps 663 mmHg 22%
    19:00 +26°C° 0 mm 2 mps 663 mmHg 25%
    20:00 +24°C° 0 mm 2 mps 663 mmHg 27%
    21:00 +21°C° 0 mm 2 mps 663 mmHg 29%
    22:00 +20°C° 0 mm 2 mps 662 mmHg 29%
    23:00 +20°C° 0 mm 2 mps 662 mmHg 30%

    Tomorrow, 21 August, Wednesday

    Time Temperature Precipitation Wind Pressure Humidity
    00:00 +20°C° 0 mm 2 mps 662 mmHg 30%
    01:00 +19°C° 0 mm 2 mps 662 mmHg 30%
    02:00 +19°C° 0 mm 2 mps 662 mmHg 30%
    03:00 +19°C° 0 mm 2 mps 662 mmHg 31%
    04:00 +20°C° 0 mm 1 mps 662 mmHg 31%
    05:00 +20°C° 0 mm 1 mps 662 mmHg 32%
    06:00 +20°C° 0 mm 1 mps 662 mmHg 33%
    07:00 +22°C° 0 mm 1 mps 663 mmHg 29%
    08:00 +25°C° 0 mm 2 mps 663 mmHg 24%
    09:00 +27°C° 0 mm 2 mps 664 mmHg 20%
    10:00 +28°C° 0 mm 2 mps 664 mmHg 18%
    11:00 +29°C° 0 mm 3 mps 664 mmHg 16%
    12:00 +31°C° 0 mm 3 mps 663 mmHg 15%
    13:00 +31°C° 0 mm 3 mps 663 mmHg 15%
    14:00 +31°C° 0 mm 3 mps 663 mmHg 15%
    15:00 +33°C° 0 mm 3 mps 662 mmHg 15%
    16:00 +30°C° 0 mm 3 mps 662 mmHg 17%
    17:00 +29°C° 0 mm 2 mps 661 mmHg 19%
    18:00 +27°C° 0 mm 2 mps 661 mmHg 21%
    19:00 +26°C° 0 mm 2 mps 661 mmHg 23%
    20:00 +24°C° 0 mm 1 mps 660 mmHg 24%
    21:00 +22°C° 0 mm 1 mps 660 mmHg 25%
    22:00 +21°C° 0 mm 2 mps 660 mmHg 26%
    23:00 +20°C° 0 mm 2 mps 660 mmHg 26%

    Day after tomorrow, 22 August, Thursday

    Time Temperature Precipitation Wind Pressure Humidity
    00:00 +20°C° 0 mm 2 mps 660 mmHg 26%
    01:00 +20°C° 0 mm 2 mps 660 mmHg 27%
    02:00 +19°C° 0 mm 2 mps 660 mmHg 27%
    03:00 +19°C° 0 mm 2 mps 659 mmHg 28%
    04:00 +20°C° 0 mm 1 mps 660 mmHg 29%
    05:00 +20°C° 0 mm 1 mps 660 mmHg 29%
    06:00 +20°C° 0 mm 1 mps 660 mmHg 30%
    07:00 +23°C° 0 mm 1 mps 660 mmHg 26%
    08:00 +25°C° 0 mm 2 mps 661 mmHg 23%
    09:00 +27°C° 0 mm 2 mps 662 mmHg 19%
    10:00 +28°C° 0 mm 2 mps 661 mmHg 18%
    11:00 +30°C° 0 mm 3 mps 661 mmHg 17%
    12:00 +31°C° 0 mm 3 mps 661 mmHg 16%
    13:00 +31°C° 0 mm 3 mps 661 mmHg 16%
    14:00 +32°C° 0 mm 4 mps 660 mmHg 16%
    15:00 +32°C° 0 mm 4 mps 660 mmHg 16%
    16:00 +30°C° 0 mm 3 mps 659 mmHg 18%
    17:00 +29°C° 0 mm 2 mps 659 mmHg 20%
    18:00 +27°C° 0 mm 2 mps 659 mmHg 23%
    19:00 +25°C° 0 mm 2 mps 659 mmHg 24%
    20:00 +24°C° 0 mm 2 mps 659 mmHg 26%
    21:00 +22°C° 0 mm 1 mps 659 mmHg 28%
    22:00 +20°C° 0 mm 2 mps 659 mmHg 27%
    23:00 +20°C° 0 mm 2 mps 659 mmHg 27%

    23 August, Friday

    Time Temperature Precipitation Wind Pressure Humidity
    00:00 +19°C° 0 mm 2 mps 659 mmHg 27%
    01:00 +19°C° 0 mm 2 mps 659 mmHg 28%
    02:00 +19°C° 0 mm 2 mps 659 mmHg 28%
    03:00 +19°C° 0 mm 2 mps 658 mmHg 28%
    04:00 +19°C° 0 mm 2 mps 659 mmHg 29%
    05:00 +19°C° 0 mm 2 mps 659 mmHg 30%
    06:00 +19°C° 0 mm 2 mps 659 mmHg 31%
    07:00 +21°C° 0 mm 2 mps 660 mmHg 28%
    08:00 +25°C° 0 mm 2 mps 660 mmHg 25%
    09:00 +27°C° 0 mm 2 mps 661 mmHg 21%
    10:00 +28°C° 0 mm 2 mps 661 mmHg 21%
    11:00 +29°C° 0 mm 3 mps 661 mmHg 20%
    12:00 +30°C° 0 mm 3 mps 661 mmHg 20%
    13:00 +31°C° 0 mm 3 mps 661 mmHg 20%
    14:00 +31°C° 0 mm 3 mps 660 mmHg 20%
    15:00 +31°C° 0 mm 3 mps 660 mmHg 20%
    16:00 +30°C° 0 mm 3 mps 660 mmHg 23%
    17:00 +29°C° 0 mm 3 mps 660 mmHg 25%
    18:00 +28°C° 0 mm 2 mps 659 mmHg 28%
    19:00 +26°C° 0 mm 2 mps 659 mmHg 30%
    20:00 +24°C° 0 mm 2 mps 659 mmHg 33%
    21:00 +21°C° 0 mm 2 mps 659 mmHg 36%
    22:00 +21°C° 0 mm 2 mps 659 mmHg 36%
    23:00 +21°C° 0 mm 2 mps 659 mmHg 37%

    24 August, Saturday

    Time Temperature Precipitation Wind Pressure Humidity
    00:00 +20°C° 0 mm 2 mps 659 mmHg 38%
    01:00 +20°C° 0 mm 2 mps 659 mmHg 38%
    02:00 +19°C° 0 mm 2 mps 659 mmHg 38%
    03:00 +19°C° 0 mm 2 mps 659 mmHg 39%
    04:00 +19°C° 0 mm 2 mps 659 mmHg 39%
    05:00 +19°C° 0 mm 2 mps 659 mmHg 39%
    06:00 +19°C° 0 mm 2 mps 659 mmHg 39%
    07:00 +23°C° 0 mm 2 mps 660 mmHg 36%
    08:00 +25°C° 0 mm 2 mps 660 mmHg 32%
    09:00 +27°C° 0 mm 2 mps 661 mmHg 29%
    10:00 +28°C° 0 mm 3 mps 661 mmHg 28%
    11:00 +29°C° 0 mm 3 mps 661 mmHg 27%
    12:00 +30°C° 0 mm 3 mps 661 mmHg 26%
    13:00 +31°C° 0 mm 3 mps 661 mmHg 26%
    14:00 +31°C° 0 mm 3 mps 660 mmHg 26%
    15:00 +31°C° 0 mm 3 mps 660 mmHg 26%
    16:00 +30°C° 0 mm 2 mps 660 mmHg 28%
    17:00 +29°C° 0 mm 2 mps 659 mmHg 31%
    18:00 +28°C° 0 mm 1 mps 659 mmHg 34%
    19:00 +26°C° 0 mm 1 mps 659 mmHg 36%
    20:00 +24°C° 0 mm 1 mps 659 mmHg 38%
    21:00 +22°C° 0 mm 1 mps 659 mmHg 41%
    22:00 +21°C° 0 mm 2 mps 659 mmHg 40%
    23:00 +21°C° 0 mm 2 mps 659 mmHg 39%

    25 August, Sunday

    Time Temperature Precipitation Wind Pressure Humidity
    00:00 +21°C° 0 mm 2 mps 660 mmHg 38%
    01:00 +20°C° 0 mm 2 mps 660 mmHg 38%
    02:00 +20°C° 0 mm 2 mps 660 mmHg 39%
    03:00 +20°C° 0 mm 2 mps 660 mmHg 39%
    04:00 +21°C° 0 mm 1 mps 660 mmHg 39%
    05:00 +21°C° 0 mm 1 mps 660 mmHg 38%
    06:00 +21°C° 0 mm 1 mps 661 mmHg 38%
    07:00 +23°C° 0 mm 1 mps 661 mmHg 34%
    08:00 +25°C° 0 mm 2 mps 662 mmHg 30%
    09:00 +27°C° 0 mm 2 mps 663 mmHg 26%
    10:00 +28°C° 0 mm 3 mps 663 mmHg 24%
    11:00 +29°C° 0 mm 3 mps 663 mmHg 22%
    12:00 +30°C° 0 mm 3 mps 663 mmHg 20%
    13:00 +32°C° 0 mm 4 mps 662 mmHg 20%
    14:00 +32°C° 0 mm 4 mps 662 mmHg 19%
    15:00 +32°C° 0 mm 4 mps 662 mmHg 18%
    16:00 +30°C° 0 mm 4 mps 662 mmHg 22%
    17:00 +28°C° 0 mm 4 mps 662 mmHg 26%
    18:00 +27°C° 0 mm 3 mps 661 mmHg 30%
    19:00 +24°C° 0 mm 3 mps 662 mmHg 39%
    20:00 +21°C° 0 mm 3 mps 662 mmHg 47%
    21:00 +19°C° 0 mm 2 mps 662 mmHg 56%
    22:00 +19°C° 0 mm 2 mps 662 mmHg 55%
    23:00 +20°C° 0 mm 2 mps 662 mmHg 53%
    Show more